OneWeb SL0631

operational
NORAD ID: 55171 Int'l Des: 2023-004 Owner: ONEWEBN Country: UK Constellation: oneweb
LEOCIRCULARPOLARONEWEB_TYPE

关于 OneWeb SL0631

正在加载描述...

实时位置

正在加载3D地球...

即将过境

高度历史

Altitude vs Time

uPlot chart will show altitude changes over time

两行轨道根数

1 55171U 23004AH 26062.32929778 -.00001356 00000-0 -34726-2 0 9992
2 55171 87.9253 356.4549 0002455 77.4493 282.6914 13.18689255155721
Epoch: Mar 3, 2026 • Age: 25 hours

当前状态

高度 1201.6 km
速度 7.25 km/s
星下点 -28.32°S, 4.57°W
发射日期 Jan 10, 2023
运行时间 3.1 years
类型 internet

技术详情

分类 Payload
质量 148.00 kg
干质量 140.00 kg
总质量 148.00 kg
长度 1.30 m
直径 1.00 m
跨度 5.00 m
形状 Trapezoid+2 pan
制造商 ONEWUS
平台类型 ARROW
阶段状态 In Orbit
所有者/国家 ONEWEBN/UK

大型星座

Loading constellations...